Wellsville, NY

4:35 PM EDT on May 28, 2017 (GMT -0400)
Wellsville Municipal-Tarantine

Weather History for KELZ - September, 2013

Change the Weather History Date:

Tuesday, September 17, 2013

  Actual Average (KDSV) Record (KDSV)
Temperature  
Mean Temperature 46 °F -  
Max Temperature 63 °F 69 °F 94 °F (1991)
Min Temperature 32 °F 49 °F 30 °F (1959)
Degree Days  
Heating Degree Days 18    
Moisture  
Dew Point 34 °F    
Average Humidity 79    
Maximum Humidity 100    
Minimum Humidity 38    
Precipitation  
Precipitation 0.00 in - - ()
Sea Level Pressure  
Sea Level Pressure 30.42 in    
Wind  
Wind Speed 1 mph (SE)    
Max Wind Speed 9 mph    
Max Gust Speed -    
Visibility 5 miles    
Events Fog    
Averages and records for this station are not official NWS values.
T = Trace of Precipitation, MM = Missing Value Source: NWS Daily Summary

Daily Weather History Graph

Daily Weather History Graph

Search for Another Location

Airport or City:

Trip Planner

Search our weather history database for the weather conditions in past years. The results will help you decide how hot, cold, wet, or windy it might be!

Date:

Astronomy

Sep. 17, 2013 Rise Set
Actual Time 6:54 AM EDT 7:17 PM EDT
Civil Twilight 6:26 AM EDT 7:45 PM EDT
Nautical Twilight 5:53 AM EDT 8:18 PM EDT
Astronomical Twilight 5:19 AM EDT 8:52 PM EDT
Moon 6:04 PM EDT (9/17) 4:45 AM EDT (9/17)
Length of Visible Light 13h 19m
Length of Day
12h 23m
Waxing Gibbous, 96% of the Moon is Illuminated
Sep 17
Waxing Gibbous
Sep 19
Full
Sep 26
Last Quarter
Oct 4
New
Oct 11
First Quarter

Hourly Weather History & Observations

Time (EDT) Temp. Windchill Dew Point Humidity Pressure Visibility Wind Dir Wind Speed Gust Speed Precip Events Conditions
12:56 AM 41.0 °F - 36.0 °F 82% 30.39 in 10.0 mi Calm Calm - N/A   Clear
1:56 AM 37.9 °F - 36.0 °F 93% 30.40 in 10.0 mi Calm Calm - N/A   Clear
2:09 AM 37.4 °F - 33.8 °F 87% 30.37 in 1.8 mi Calm Calm - N/A   Clear
2:21 AM 35.6 °F - 33.8 °F 93% 30.37 in 0.2 mi Calm Calm - N/A Fog Fog
2:56 AM 34.0 °F - 32.0 °F 92% 30.42 in 0.2 mi Calm Calm - N/A Fog Fog
3:34 AM 35.6 °F - 32.0 °F 87% 30.38 in 1.5 mi Calm Calm - N/A   Scattered Clouds
3:36 AM 35.6 °F - 32.0 °F 87% 30.38 in 4.0 mi Calm Calm - N/A   Scattered Clouds
3:48 AM 35.6 °F - 33.8 °F 93% 30.38 in 1.8 mi Calm Calm - N/A   Partly Cloudy
3:56 AM 35.1 °F - 33.1 °F 92% 30.43 in 0.5 mi Calm Calm - N/A Fog Fog
4:06 AM 35.6 °F - 33.8 °F 93% 30.39 in 1.2 mi Calm Calm - N/A   Partly Cloudy
4:09 AM 35.6 °F - 33.8 °F 93% 30.39 in 3.0 mi Calm Calm - N/A   Partly Cloudy
4:56 AM 37.0 °F - 35.1 °F 93% 30.44 in 10.0 mi Calm Calm - N/A   Clear
5:07 AM 35.6 °F - 33.8 °F 93% 30.40 in 1.8 mi Calm Calm - N/A   Clear
5:14 AM 35.6 °F - 33.8 °F 93% 30.40 in 0.8 mi Calm Calm - N/A   Mist
5:36 AM 33.8 °F 30.8 °F 32.0 °F 93% 30.40 in 1.5 mi ENE 3.5 mph - N/A   Scattered Clouds
5:43 AM 33.8 °F - 32.0 °F 93% 30.40 in 4.0 mi Calm Calm - N/A   Scattered Clouds
5:49 AM 33.8 °F - 32.0 °F 93% 30.40 in 1.8 mi Calm Calm - N/A   Partly Cloudy
5:53 AM 32.0 °F - 30.2 °F 93% 30.40 in 0.8 mi Calm Calm - N/A   Mist
5:56 AM 32.0 °F - 30.9 °F 96% 30.45 in 0.5 mi Calm Calm - N/A Fog Fog
6:19 AM 32.0 °F - 30.2 °F 93% 30.41 in 1.2 mi Calm Calm - N/A   Scattered Clouds
6:30 AM 33.8 °F - 30.2 °F 87% 30.42 in 1.8 mi Calm Calm - N/A   Mostly Cloudy
6:44 AM 32.0 °F - 30.2 °F 93% 30.42 in 0.2 mi Calm Calm - N/A Fog Fog
6:56 AM 32.0 °F - 30.9 °F 96% 30.48 in 0.2 mi Calm Calm - N/A Fog Fog
7:37 AM 32.0 °F - 30.2 °F 93% 30.44 in 0.5 mi Calm Calm - N/A Fog Fog
7:48 AM 32.0 °F - 30.2 °F 93% 30.44 in 0.2 mi Calm Calm - N/A Fog Fog
7:56 AM 32.0 °F - 30.9 °F 96% 30.50 in 0.2 mi Calm Calm - N/A Fog Fog
8:14 AM 33.8 °F - 33.8 °F 100% 30.45 in 0.8 mi Calm Calm - N/A   Mist
8:23 AM 35.6 °F - 35.6 °F 100% 30.45 in 0.2 mi Calm Calm - N/A Fog Fog
8:53 AM 39.2 °F - 37.4 °F 93% 30.45 in 1.0 mi Calm Calm - N/A   Mist
8:56 AM 39.0 °F - 37.9 °F 96% 30.50 in 3.0 mi Calm Calm - N/A   Mostly Cloudy
9:13 AM 39.2 °F 37.0 °F 37.4 °F 93% 30.46 in 10.0 mi ESE 3.5 mph - N/A   Partly Cloudy
9:56 AM 44.1 °F 40.8 °F 37.9 °F 79% 30.50 in 10.0 mi Variable 5.8 mph - N/A   Clear
10:56 AM 50.0 °F - 37.9 °F 63% 30.49 in 10.0 mi ESE 6.9 mph - N/A   Clear
11:56 AM 55.0 °F - 35.1 °F 47% 30.48 in 10.0 mi ESE 9.2 mph - N/A   Clear
12:56 PM 57.9 °F - 35.1 °F 42% 30.46 in 10.0 mi ESE 9.2 mph - N/A   Clear
1:56 PM 60.1 °F - 35.1 °F 39% 30.44 in 10.0 mi ESE 8.1 mph - N/A   Clear
2:56 PM 61.0 °F - 36.0 °F 39% 30.42 in 10.0 mi ESE 8.1 mph - N/A   Clear
3:56 PM 61.0 °F - 35.1 °F 38% 30.41 in 10.0 mi SE 6.9 mph - N/A   Clear
4:56 PM 61.0 °F - 35.1 °F 38% 30.38 in 10.0 mi SSE 5.8 mph - N/A   Clear
5:56 PM 60.1 °F - 37.0 °F 42% 30.39 in 10.0 mi East 6.9 mph - N/A   Clear
6:56 PM 55.9 °F - 37.9 °F 51% 30.38 in 10.0 mi SE 4.6 mph - N/A   Clear
7:56 PM 53.1 °F - 37.0 °F 55% 30.38 in 10.0 mi SSE 5.8 mph - N/A   Clear
8:56 PM 52.0 °F - 36.0 °F 54% 30.38 in 10.0 mi SSE 4.6 mph - N/A   Clear
9:56 PM 50.0 °F - 36.0 °F 59% 30.37 in 10.0 mi South 3.5 mph - N/A   Clear
10:56 PM 50.0 °F - 36.0 °F 59% 30.36 in 10.0 mi Calm Calm - N/A   Clear
11:56 PM 48.0 °F - 37.0 °F 66% 30.35 in 10.0 mi SSE 4.6 mph - N/A   Clear